, AK

(GMT )
Annette Island

Weather History for PANT - October, 2012

Change the Weather History Date:

Saturday, October 6, 2012

  Actual Average Record
Temperature  
Mean Temperature 59 °F 49 °F  
Max Temperature 68 °F 54 °F 68 °F (2012)
Min Temperature 49 °F 44 °F 0 °F (1993)
Degree Days  
Heating Degree Days 6 16  
Month to date heating degree days 81 90  
Since 1 July heating degree days 874 825  
Cooling Degree Days 0    
Month to date cooling degree days 0  
Year to date cooling degree days 7  
Growing Degree Days 8 (Base 50)    
Moisture  
Dew Point 49 °F    
Average Humidity 0    
Maximum Humidity 0    
Minimum Humidity 0    
Precipitation  
Precipitation 0.00 in 0.40 in 2.61 in (2013)
Month to date precipitation 0.15 2.37  
Year to date precipitation 77.33 67.07  
Snow  
Snow 0.00 in 0.00 in T in (1993)
Month to date snowfall 0.0 0.0  
Since 1 July snowfall 0.0 0.0  
Since 1 September snowfall 0.0 0.0  
Snow Depth 0.00 in    
Sea Level Pressure  
Sea Level Pressure 30.29 in    
Wind  
Wind Speed 8 mph (NW)    
Max Wind Speed 14 mph    
Max Gust Speed 20 mph    
Visibility 10 miles    
Events      
T = Trace of Precipitation, MM = Missing Value Source: NWS Daily Summary

Daily Weather History Graph

Daily Weather History Graph

Search for Another Location

Airport or City:

Trip Planner

Search our weather history database for the weather conditions in past years. The results will help you decide how hot, cold, wet, or windy it might be!

Date:

Astronomy

Oct. 06, 2012 Rise Set
Actual Time 6:59 AM AKDT 6:07 PM AKDT
Civil Twilight 6:23 AM AKDT 6:43 PM AKDT
Nautical Twilight 5:41 AM AKDT 7:25 PM AKDT
Astronomical Twilight 4:58 AM AKDT 8:08 PM AKDT
Moon 9:44 PM AKDT (10/6) 1:46 PM AKDT (10/6)
Length of Visible Light 12h 20m
Length of Day
11h 08m
Waning Gibbous, 64% of the Moon is Illuminated
Oct 6
Waning Gibbous
Oct 7
Last Quarter
Oct 15
New
Oct 21
First Quarter
Oct 29
Full

Hourly Weather History & Observations

Time (AKDT) Temp. Dew Point Humidity Pressure Visibility Wind Dir Wind Speed Gust Speed Precip Events Conditions
12:53 AM 54.0 °F 51.1 °F 90% 30.34 in 10.0 mi NNW 6.9 mph - N/A   Clear
1:53 AM 54.0 °F 51.1 °F 90% 30.34 in 10.0 mi NNW 10.4 mph - N/A   Clear
2:53 AM 52.0 °F 50.0 °F 93% 30.33 in 10.0 mi NW 6.9 mph - N/A   Clear
3:53 AM 50.0 °F 48.9 °F 96% 30.32 in 10.0 mi WNW 4.6 mph - N/A   Clear
4:53 AM 52.0 °F 50.0 °F 93% 30.32 in 10.0 mi NW 9.2 mph - N/A   Clear
6:53 AM 51.1 °F 48.9 °F 92% 30.32 in 10.0 mi NNW 6.9 mph - N/A   Clear
7:53 AM 54.0 °F 50.0 °F 86% 30.32 in 10.0 mi Variable 6.9 mph - N/A   Clear
8:53 AM 57.0 °F 51.1 °F 81% 30.32 in 10.0 mi NW 8.1 mph - N/A   Clear
9:53 AM 60.1 °F 51.1 °F 72% 30.32 in 10.0 mi NNW 8.1 mph - N/A   Clear
10:53 AM 61.0 °F 51.1 °F 70% 30.32 in 10.0 mi WNW 4.6 mph - N/A   Clear
11:53 AM 64.0 °F 51.1 °F 63% 30.32 in 10.0 mi NW 4.6 mph - N/A   Clear
12:53 PM 64.0 °F 51.1 °F 63% 30.31 in 10.0 mi WNW 8.1 mph - N/A   Clear
1:53 PM 66.0 °F 50.0 °F 56% 30.29 in 10.0 mi NW 6.9 mph - N/A   Clear
2:53 PM 64.9 °F 50.0 °F 58% 30.28 in 10.0 mi NW 6.9 mph - N/A   Clear
3:53 PM 64.0 °F 48.9 °F 58% 30.27 in 10.0 mi WNW 6.9 mph - N/A   Clear
4:53 PM 64.0 °F 48.0 °F 56% 30.26 in 10.0 mi NNW 10.4 mph - N/A   Clear
5:53 PM 62.1 °F 48.0 °F 60% 30.26 in 10.0 mi NNW 12.7 mph - N/A   Clear
6:53 PM 60.1 °F 48.0 °F 64% 30.26 in 10.0 mi NNW 9.2 mph - N/A   Clear
7:53 PM 57.9 °F 48.0 °F 70% 30.26 in 10.0 mi NNW 8.1 mph - N/A   Clear
8:53 PM 57.9 °F 48.0 °F 70% 30.26 in 10.0 mi NNW 9.2 mph - N/A   Clear
9:53 PM 57.0 °F 48.0 °F 72% 30.25 in 10.0 mi NNW 6.9 mph - N/A   Clear
10:53 PM 55.9 °F 48.0 °F 75% 30.26 in 10.0 mi NNW 6.9 mph - N/A   Clear
11:53 PM 53.1 °F 48.0 °F 83% 30.25 in 10.0 mi NW 4.6 mph - N/A   Clear